Home   Weather   Orlando   Past weeks

Flag for USA Past Weather in Orlando, Florida, USA — Yesterday and Last 2 Weeks

Now
77 °F

Mostly cloudy.


Feels Like: 78 °F
Forecast: 75 / 88 °F
Wind: No wind

Location: Orlando International Airport

Current Time: Jul 24, 2017 at 3:04:47 am

Latest Report: Jul 24, 2017 at 1:53 am


Visibility: 10 mi

Pressure: 30.03 "Hg

Humidity: 100%

Dew Point: 77 °F

Location of OrlandoLocation

Past Weather in Orlando — Graph

°F

Orlando Temperature Yesterday

Maximum temperature yesterday: 84 °F (at 10:53 am)
Minimum temperature yesterday: 74 °F (at 2:53 am)
Average temperature yesterday: 79 °F

High & Low Weather Summary for the Past Weeks

 TemperatureHumidityPressure
High93 °F (Jul 10, 2:53 pm)100% (Jul 9, 1:53 am)30.15 "Hg (Jul 9, 1:53 am)
Low71 °F (Jul 17, 6:38 pm)46% (Jul 11, 1:53 pm)29.93 "Hg (Jul 16, 5:53 pm)
Average80 °F85%30.07 "Hg
* Reported Jul 9 1:53 am — Jul 24 1:53 am, Orlando. Weather by CustomWeather, © 2017

Note: Actual official high and low records may vary slightly from our data, if they occured in-between our weather recording intervals... More about our weather records

Advertising

Orlando Weather History for the Previous 24 Hours

Scroll right to see more
 ConditionsComfort  
Time TempWeatherWind HumidityBarometerVisibility
1:53 am
Mon, Jul 24
77 °FMostly cloudy.No wind100%30.03 "Hg10 mi
12:53 am77 °FMostly cloudy.5 mph100%30.04 "Hg10 mi
11:53 pm
Sun, Jul 23
78 °FOvercast.3 mph96%30.05 "Hg10 mi
10:53 pm78 °FMostly cloudy.3 mph93%30.04 "Hg10 mi
9:53 pm80 °FPassing clouds.No wind87%30.01 "Hg10 mi
8:53 pm79 °FLight rain. High level clouds.No wind90%29.99 "Hg10 mi
7:53 pm80 °FPartly sunny.7 mph81%29.98 "Hg10 mi
6:53 pm82 °FMostly cloudy.6 mph72%29.99 "Hg10 mi
5:53 pm82 °FMostly cloudy.6 mph70%30.01 "Hg10 mi
4:53 pm82 °FMostly cloudy.6 mph70%30.03 "Hg10 mi
3:53 pm82 °FMostly cloudy.6 mph67%30.04 "Hg10 mi
2:53 pm82 °FMostly cloudy.7 mph70%30.06 "Hg10 mi
1:53 pm81 °FMore clouds than sun.9 mph74%30.06 "Hg10 mi
1:33 pm80 °FMore clouds than sun.12 mph74%30.07 "Hg10 mi
12:53 pm81 °FThunderstorms. Cloudy.15 mph82%30.07 "Hg10 mi
12:29 pm84 °FThunderstorms. Cloudy.14 mph70%30.08 "Hg10 mi
11:53 am84 °FCloudy.9 mph77%30.06 "Hg10 mi
10:53 am84 °FBroken clouds.9 mph77%30.06 "Hg10 mi
9:53 am80 °FPartly sunny.7 mph85%30.06 "Hg10 mi
8:53 am77 °FMore clouds than sun.5 mph96%30.06 "Hg10 mi
7:53 am75 °FMostly cloudy.No wind100%30.04 "Hg10 mi
6:53 am74 °FPartly sunny.5 mph100%30.03 "Hg10 mi
5:53 am74 °FMostly cloudy.No wind100%30.02 "Hg10 mi
4:53 am74 °FPartly cloudy.5 mph100%30.01 "Hg10 mi
3:53 am74 °FMostly cloudy.6 mph100%30.02 "Hg10 mi
Weather by CustomWeather, © 2017

See weather overviewHow to use our weather pages